Regional Weather Roundup
Issued by NWS Cleveland, OH

Home | Current Version | Previous Version | Graphics & Text | Print | Product List | Glossary On
Versions: 1 2 3 4 5 6 7 8 9 10 11 12 13 14 15 16 17 18 19 20 21 22 23 24 25 26 27 28 29 30 31 32 33 34 35 36 37 38 39 40 41 42 43 44 45 46 47 48 49 50
000
ASUS41 KCLE 220410
RWRCLE
OHIO REGIONAL WEATHER ROUNDUP
NATIONAL WEATHER SERVICE CLEVELAND, OH
1200 AM EDT WED OCT 22 2014

NOTE: "FAIR" INDICATES FEW OR NO CLOUDS BELOW 12,000 FEET WITH NO
SIGNIFICANT WEATHER AND/OR OBSTRUCTIONS TO VISIBILITY.

OHZ001>008-015>018-024>027-034-035-043-044-220500-
   NORTHWEST OHIO

CITY           SKY/WX    TMP DP  RH WIND       PRES   REMARKS
DEFIANCE       CLOUDY    45  37  73 N5        30.23S
FINDLAY        CLOUDY    45  38  76 N9        30.19S
TOLEDO EXPRESS CLOUDY    44  36  73 N8        30.21S
TOLEDO EXEC    CLOUDY    46  36  68 N10       30.21S
LIMA           CLOUDY    45  37  73 N9        30.19F
$$

OHZ009>014-019>023-028>033-038-089-220500-
   NORTHEAST OHIO

CITY           SKY/WX    TMP DP  RH WIND       PRES   REMARKS
CLE-HOPKINS    CLOUDY    48  43  82 N14       30.15R
CLE-LAKEFRONT  CLOUDY    50  45  83 N20       30.12R
CUY CO. ARPT   NOT AVBL
LORAIN-ELYRIA  CLOUDY    47  43  86 N12       30.14R
ASHTABULA      CLOUDY    46  44  93 N9        30.11R FOG
AKRON-CANTON   CLOUDY    47  44  90 N10       30.08S FOG
WOOSTER        CLOUDY    47  44  90 N14       30.11S
MANSFIELD      LGT RAIN  44  43  96 NW12      30.13S FOG
YOUNGSTOWN     CLOUDY    47  45  93 N10       30.06R
$$

OHZ042-051>053-060>062-070>072-077>081-220500-
  SOUTHWEST OHIO

CITY           SKY/WX    TMP DP  RH WIND       PRES   REMARKS
CINC-COVINGTON CLOUDY    48  40  73 NE10      30.17S
CINC-LUNKEN    CLOUDY    48  38  68 N8        30.20R
HAMILTON       CLOUDY    48  38  68 NE6       30.20R
DAYTON         CLOUDY    46  38  73 N14       30.20R
WRIGHT-PAT AFB CLOUDY    46  38  73 NW10      30.18S
DAYTON GENERAL CLOUDY    46  37  71 N13G18    30.18R
WILMINGTON     CLOUDY    45  36  70 N8        30.17R
$$

OHZ036-037-039>041-045>050-054>059-063>069-073>076-082>088-220500-
  CENTRAL AND SOUTHEAST OHIO

CITY           SKY/WX    TMP DP  RH WIND       PRES   REMARKS
COLUMBUS       CLOUDY    45  39  79 N12       30.14F
OSU AIRPORT    CLOUDY    44  39  82 N12       30.15S
BOLTON FIELD   CLOUDY    44  40  86 NW14      30.16S
RICKENBACK AFB CLOUDY    45  39  79 N12G18    30.15S
NEWARK         CLOUDY    46  40  79 NW10      30.12F
MARION         CLOUDY    43  40  89 N10       30.16S FOG
LANCASTER      CLOUDY    46  40  79 N10       30.14S
ZANESVILLE     CLOUDY    45  40  82 NW12      30.10F
NEW PHILLY     CLOUDY    47  45  93 NW7       30.09S FOG
$$



USA.gov is the U.S. government's official web portal to all federal, state and local government web resources and services.